Location: Alto Sen�n
(5.6458°N, 75.8356°W)
Time: 16:09:11
(UTC+00:00)

Daily predictions for brighter satellites

Satellite Brightness Start Highest point End
(mag) Time Altitude Azimuth Time Altitude Azimuth Time Altitude Azimuth
NOAA 11 4.2 23:33:06 10° SSE 23:38:31 71° ENE 23:43:55 10° N
SL-4 R/B 3.5 23:37:27 10° NW 23:41:57 43° SW 23:46:32 10° SSE
KORONAS-FOTON 3.8 23:38:28 10° S 23:42:22 78° E 23:46:16 10° N
Cosmos 2266 Rocket 4.0 23:38:43 10° S 23:44:38 59° E 23:50:34 10° NNE
Meteor 1-24 Rocket 4.3 23:41:11 10° SSE 23:46:18 37° E 23:51:34 10° NNE
Cosmos 540 Rocket 4.3 23:42:13 10° SSW 23:47:13 57° WNW 23:52:13 10° N
Hubble Space Telescope 0.7 23:43:53 10° WSW 23:48:00 79° SSE 23:52:08 10° ENE
Exosat Rocket 3.7 23:43:38 10° N 23:48:30 58° ENE 23:53:52 10° SSE
Cosmos 2360 Rocket 3.4 23:45:02 10° SSE 23:48:59 20° ESE 23:52:57 10° ENE
DELTA 2 R/B (1) 4.3 23:46:05 10° WSW 23:51:31 58° NW 23:56:59 10° NE
Ariane H10 2.9 23:52:41 10° WSW 23:55:28 23° S 23:57:31 12° SE
